Temperature
18 19 19 19 16 14 17 17 17 18 19 21 20 20 18 18 19 19 20 20 20 21 20 20 20 19 19 18 17 17 17 17 17 17 17 17 16 16 16 16 16 16 16 16 16 16 16 17 17
19 19 19 19 14 15 17 16 17 18 19 21 21 20 19 19 19 19 20 20 20 19 19 19 19 18 18 18 17 17 17 17 16 17 16 16 16 16 16 16 16 16 16 16 16 16 16 16 17
19 19 19 14 14 15 17 16 16 19 20 21 20 19 18 17 17 18 19 19 19 18 18 17 17 17 17 17 16 16 16 16 15 16 16 16 16 16 16 16 16 16 16 16 16 16 16 16 16
19 19 18 15 15 16 17 16 16 17 21 20 20 18 17 14 15 16 18 18 17 17 17 16 16 17 17 16 16 16 15 15 15 15 15 15 15 15 16 16 16 16 16 15 16 16 16 16 16
20 20 14 14 16 16 15 16 17 16 17 17 19 17 16 14 15 16 17 17 16 16 15 15 16 16 16 16 16 16 15 15 15 14 14 14 15 14 15 15 15 15 15 15 15 15 15 15 15
20 16 13 14 16 16 16 17 17 15 15 14 16 16 13 12 14 14 15 16 15 15 15 15 15 15 15 15 14 14 14 14 14 14 14 14 14 14 14 15 15 15 15 15 15 15 15 15 15
18 13 14 16 16 16 16 18 15 14 11 10 12 13 12 11 12 13 15 15 15 15 15 15 15 14 14 14 14 14 14 14 14 14 14 14 14 14 14 14 14 14 14 14 14 15 15 15 15
19 13 15 15 17 17 17 16 13 11 10 8 9 8 7 8 10 12 14 14 14 13 13 13 14 14 14 14 14 14 14 13 13 13 13 13 14 14 14 14 14 14 14 14 14 14 14 15 15
19 13 15 17 18 16 15 14 12 10 9 8 7 7 7 8 11 14 14 13 13 13 13 13 13 13 13 13 13 13 13 13 13 13 13 13 13 13 14 14 14 14 14 14 14 14 14 14 14
18 14 17 18 17 14 10 10 11 8 7 7 7 7 8 9 11 11 11 10 11 11 11 12 12 12 12 12 12 12 13 12 12 13 13 13 13 13 13 13 13 13 14 14 14 14 14 14 14
17 16 18 18 17 15 11 8 8 8 6 6 6 6 8 9 9 9 9 8 9 9 10 10 11 11 12 12 12 12 12 12 12 12 12 12 12 13 13 13 13 13 13 13 13 13 13 13 13
17 17 17 16 16 13 11 9 7 7 6 6 6 7 8 8 7 7 7 8 9 9 10 10 10 11 11 11 11 11 12 12 12 12 12 12 12 12 12 12 12 12 13 13 13 13 13 13 13
17 15 12 11 10 9 8 7 7 7 6 7 7 7 7 6 6 6 7 7 8 8 9 9 10 10 10 10 10 11 11 11 11 11 11 12 12 12 12 12 12 12 12 12 12 12 12 12 13
17 15 13 13 12 9 8 8 7 6 6 6 6 6 6 6 6 7 7 7 7 7 7 8 8 8 9 10 10 10 10 11 11 11 11 11 11 11 12 12 12 12 12 12 12 12 12 12 12
17 13 13 13 12 10 9 7 6 6 6 6 5 5 5 5 5 5 5 5 6 6 6 7 7 8 8 8 8 9 9 9 10 10 11 10 10 11 11 12 12 12 12 12 12 12 12 12 12
14 13 13 13 12 10 8 5 6 5 5 4 4 4 5 5 4 4 5 5 5 5 6 6 6 6 7 7 7 7 7 7 8 8 9 10 9 9 10 10 11 11 12 12 12 12 12 12 12
12 13 13 12 9 8 6 4 4 4 4 3 3 4 4 4 4 4 4 4 4 5 5 5 5 5 5 6 6 5 5 5 5 6 7 7 7 7 7 8 9 10 10 11 11 11 11 11 12
14 13 13 11 8 7 5 4 4 3 3 3 3 3 4 3 3 3 3 4 4 4 4 4 4 4 4 4 4 4 4 4 3 3 4 5 5 5 6 6 7 8 9 9 10 10 11 11 11
14 13 12 10 8 6 4 3 3 3 3 2 2 2 3 3 3 3 3 3 3 3 3 3 2 2 2 2 1 2 2 2 2 2 2 3 3 4 4 5 5 6 7 8 8 9 10 10 10
13 12 11 8 8 5 3 3 3 3 2 2 2 2 2 2 2 2 2 2 2 2 2 1 1 -0 -1 -1 -1 -1 -1 -0 0 1 1 2 2 2 3 3 4 5 6 7 8 8 9 9 9
12 13 12 9 5 5 4 3 3 3 3 2 2 2 1 1 1 0 0 0 0 0 -0 -1 -1 -2 -3 -3 -2 -2 -1 -1 -1 -0 0 1 1 1 2 2 3 3 4 5 6 7 8 8 9
11 12 11 10 6 4 5 2 2 2 2 2 2 2 1 1 0 -1 -1 -1 -2 -2 -3 -3 -3 -3 -4 -4 -3 -4 -5 -5 -5 -4 -3 -1 -0 1 1 2 2 2 3 4 5 6 6 7 8
10 9 9 9 7 6 5 3 2 2 1 1 2 2 1 0 -1 -2 -2 -3 -4 -4 -4 -4 -4 -4 -4 -5 -4 -5 -6 -6 -5 -5 -5 -4 -3 -2 -1 0 1 1 2 3 4 5 6 6 6
8 9 9 7 7 8 6 5 2 1 2 1 2 2 1 -0 -1 -3 -3 -4 -5 -5 -5 -5 -5 -6 -6 -5 -5 -6 -6 -6 -6 -6 -6 -6 -6 -5 -3 -2 -1 -1 0 1 3 4 5 5 6
7 8 8 9 8 8 4 3 1 2 2 2 2 1 0 -1 -3 -4 -4 -5 -5 -6 -6 -6 -6 -7 -7 -6 -6 -6 -7 -7 -7 -7 -7 -6 -6 -6 -6 -4 -3 -2 -2 -1 1 2 3 4 5
8 8 8 9 7 6 4 3 1 2 3 3 2 1 -0 -2 -3 -4 -5 -5 -6 -6 -6 -6 -7 -8 -8 -7 -7 -7 -8 -8 -8 -8 -7 -7 -7 -6 -6 -5 -4 -3 -2 -2 -1 1 2 3 4
9 6 7 6 5 4 4 2 2 2 2 2 2 1 -1 -3 -4 -5 -5 -6 -7 -7 -8 -8 -8 -8 -8 -8 -8 -8 -8 -8 -8 -8 -7 -7 -7 -7 -6 -6 -5 -4 -3 -2 -1 -0 1 3 3
6 5 4 5 6 6 5 3 2 1 0 -0 0 0 -1 -3 -4 -5 -6 -7 -7 -8 -8 -8 -9 -9 -9 -9 -9 -9 -9 -9 -9 -8 -8 -8 -7 -7 -7 -6 -5 -4 -3 -2 -1 -1 1 2 3
7 6 4 3 4 4 3 4 1 2 1 -1 0 -0 -2 -4 -5 -6 -7 -7 -8 -8 -8 -9 -9 -9 -10 -10 -10 -10 -10 -10 -9 -9 -8 -8 -7 -7 -7 -6 -6 -5 -4 -3 -2 -1 0 1 2
6 6 4 4 4 2 2 3 3 2 1 0 0 -1 -3 -5 -6 -7 -7 -8 -8 -8 -9 -9 -10 -10 -10 -10 -10 -10 -10 -10 -10 -9 -9 -9 -8 -7 -7 -7 -6 -5 -5 -4 -3 -1 -1 0 1
Wind_Speed
12 7 3 4 6 7 6 7 5 8 7 5 3 8 9 8 7 5 6 5 3 3 4 5 6 5 4 4 3 3 3 2 2 2 3 4 5 5 5 5 6 7 7 7 7 7 6 5 5
6 4 5 6 7 7 6 8 9 8 6 4 5 8 10 9 5 5 9 7 7 6 4 1 3 3 4 4 4 4 4 4 3 3 5 5 6 6 7 7 7 8 10 10 9 8 7 6 6
4 5 5 6 6 5 6 8 7 7 5 6 7 8 7 8 11 10 11 7 9 8 6 4 3 3 4 5 5 6 6 5 5 5 7 7 7 8 9 9 10 10 9 10 10 9 8 7 6
4 6 6 10 11 5 3 6 8 7 10 11 6 8 7 11 14 12 12 9 11 9 8 5 4 4 4 5 6 7 7 7 8 7 8 8 9 9 9 10 11 10 8 7 6 7 8 8 7
5 6 9 9 8 6 6 7 7 9 8 11 7 7 7 15 18 16 18 18 17 14 18 15 12 8 5 5 6 7 7 7 9 9 8 9 12 11 10 10 11 10 7 5 5 5 6 6 5
5 6 7 7 5 7 7 8 7 9 9 11 11 6 7 17 25 20 20 22 21 21 26 27 27 22 14 9 7 7 7 8 9 9 8 10 11 10 11 11 11 9 6 4 4 6 6 6 6
5 6 6 5 4 7 9 7 9 8 13 14 12 7 7 22 22 16 18 21 24 28 28 28 29 28 24 18 13 10 9 9 9 8 9 12 12 10 10 11 10 7 5 5 6 7 8 7 7
5 6 6 4 5 7 8 7 10 15 11 9 10 10 8 16 16 12 21 24 23 24 26 28 29 30 28 23 22 19 15 13 11 10 11 12 11 9 9 9 9 8 7 7 8 9 9 8 7
4 6 5 2 4 6 9 8 8 9 11 13 11 10 7 11 13 24 28 27 27 26 23 27 28 30 28 26 28 27 24 23 19 14 13 13 11 10 10 10 10 10 10 10 10 10 11 10 8
6 5 3 1 4 9 9 10 7 10 16 12 13 15 11 12 23 28 27 25 25 24 22 22 26 29 28 26 25 25 24 25 24 21 18 15 13 12 12 12 14 14 15 14 14 13 12 11 8
5 6 1 5 7 9 9 13 13 9 15 10 11 13 13 21 25 24 20 15 15 13 20 19 23 27 27 23 23 22 22 23 24 25 25 20 15 12 10 8 10 12 13 11 11 12 11 10 8
5 4 6 5 7 9 8 7 14 20 9 7 8 10 15 22 21 20 19 16 15 17 20 19 23 25 26 24 21 21 21 20 20 22 25 21 12 10 9 6 7 7 7 7 6 5 7 8 9
5 7 11 21 29 24 25 18 15 13 8 8 12 18 20 20 17 15 15 18 20 21 21 21 20 23 24 21 19 20 20 20 21 21 24 24 13 9 10 8 8 7 6 5 4 4 4 5 6
5 10 11 10 15 11 22 15 9 9 9 13 18 19 18 19 19 20 22 22 22 21 21 20 17 24 24 19 15 15 18 20 20 20 23 25 20 15 11 10 8 7 8 6 5 5 5 5 5
6 11 10 6 8 8 16 15 10 9 9 15 15 15 17 18 19 18 16 16 16 17 17 19 16 24 23 19 18 17 17 18 17 18 22 24 23 20 15 10 12 10 12 9 6 6 4 5 5
6 7 6 6 6 6 12 9 9 9 12 16 14 13 15 16 16 14 16 15 15 16 19 19 21 21 20 19 18 17 18 17 16 18 20 23 24 23 17 10 11 15 14 7 6 6 5 6 6
9 5 5 5 11 6 9 10 9 9 14 15 13 13 13 15 16 15 16 16 17 16 17 19 18 18 19 19 19 18 17 16 17 18 19 22 22 23 19 11 10 17 10 9 9 7 6 6 7
3 3 4 5 7 11 14 13 8 8 13 13 12 14 15 17 14 13 15 16 16 15 16 19 20 19 19 16 13 11 11 13 17 17 20 23 22 22 19 12 14 14 11 10 10 10 8 7 7
3 4 5 5 6 9 15 13 7 7 10 13 13 14 16 14 12 11 14 17 18 18 18 19 20 20 17 16 15 15 15 13 11 15 21 23 24 24 19 12 12 12 12 12 13 11 11 7 5
5 7 6 6 7 8 13 10 6 7 7 6 8 10 11 13 15 15 17 18 19 17 15 16 18 18 16 16 14 13 14 12 12 17 21 22 24 23 19 14 14 14 13 14 13 12 8 6 5
4 4 4 7 6 7 9 5 3 3 3 4 6 7 9 12 12 12 14 16 19 19 19 18 18 18 17 19 14 16 13 12 14 16 15 20 24 22 20 17 13 14 12 13 14 13 11 10 8
3 2 4 7 7 6 6 5 5 2 4 7 8 9 10 11 10 10 14 16 19 18 18 18 19 19 18 19 19 20 16 16 17 15 14 18 21 20 19 18 15 13 13 13 14 13 12 12 11
6 6 3 3 6 5 3 5 4 2 5 7 8 9 10 10 10 11 12 15 17 16 17 18 19 18 18 18 20 19 17 16 16 16 18 17 15 17 19 18 14 14 13 14 15 16 15 11 11
5 4 3 5 4 2 1 5 4 1 2 6 7 9 10 10 9 10 10 11 12 12 15 18 18 17 17 19 19 19 20 21 21 21 19 17 16 15 19 21 15 15 15 15 15 15 17 15 13
10 8 7 8 5 2 1 3 4 5 4 5 8 9 9 9 9 10 11 14 15 16 19 20 20 19 18 18 18 18 19 20 20 20 19 19 16 17 20 21 20 18 18 17 16 15 16 16 14
6 6 4 3 6 5 2 1 5 6 5 6 8 8 8 9 8 9 10 13 14 17 19 20 20 21 19 19 19 17 18 15 15 18 18 17 15 17 20 22 22 22 21 19 17 15 15 14 13
4 4 1 4 4 5 3 1 2 3 6 8 9 8 8 8 8 8 9 13 14 15 16 17 19 20 20 20 20 18 18 17 17 18 17 15 16 18 21 22 23 22 21 19 18 14 15 13 12
7 6 6 5 6 7 7 3 3 4 9 9 9 9 7 7 8 8 9 12 14 13 13 15 17 18 19 19 17 17 17 17 17 17 18 18 19 19 21 22 22 22 20 19 16 14 13 11 9
5 5 6 4 2 3 7 6 6 3 6 9 10 9 8 9 10 8 9 10 13 11 12 14 16 18 19 19 18 18 17 18 18 17 18 19 19 20 20 20 21 20 19 19 16 13 10 8 4
5 5 5 1 2 3 3 6 4 1 6 8 9 7 7 8 10 7 8 9 11 11 13 14 16 17 18 18 18 18 18 19 19 19 19 19 19 19 19 19 20 20 19 19 19 17 11 6 4
Wind_Direction
339 351 50 52 52 54 43 359 347 349 355 5 65 91 88 74 78 81 321 17 22 86 161 197 196 207 218 230 241 262 285 331 34 7 313 302 301 310 314 299 274 269 269 264 253 244 239 229 210
336 9 48 57 73 63 14 351 358 343 316 328 53 65 57 36 24 10 345 360 44 54 49 12 229 240 249 257 260 264 267 279 289 297 291 297 303 304 309 320 311 283 269 263 257 250 248 240 217
10 48 71 64 62 68 2 337 322 307 358 38 58 51 53 15 354 348 327 19 50 46 36 12 288 271 274 275 274 270 264 263 266 264 270 277 286 295 301 305 305 303 282 266 260 255 254 252 235
55 43 55 69 66 34 348 318 322 352 19 22 59 52 64 43 344 329 342 29 40 30 23 2 313 290 283 279 273 270 267 264 269 271 272 276 277 273 282 294 296 294 291 286 282 269 262 263 253
56 70 60 58 49 356 346 345 356 40 27 6 41 81 52 2 355 7 26 33 31 23 17 13 3 344 322 301 287 276 270 266 271 274 271 280 282 274 268 278 286 272 270 289 303 299 286 282 274
45 60 72 66 35 349 357 349 21 40 26 14 12 73 69 353 9 11 28 36 33 28 23 18 10 3 352 333 312 298 281 270 270 282 280 280 280 283 281 275 283 267 252 268 293 299 297 294 293
81 71 78 89 43 17 359 10 32 30 37 11 349 39 21 357 358 359 29 34 32 28 24 18 13 8 360 348 341 331 320 305 291 289 288 292 286 293 301 286 282 278 281 284 285 285 289 292 294
104 89 67 62 64 31 10 47 48 39 41 10 23 40 7 340 340 5 36 35 31 28 24 18 15 12 8 4 1 355 343 331 314 299 297 302 291 286 295 294 274 269 272 274 278 276 271 268 274
75 71 70 66 85 48 27 64 64 46 61 52 47 47 0 334 7 34 33 29 26 24 21 18 16 15 13 14 12 10 7 359 349 331 326 327 319 305 293 284 270 262 258 256 260 265 265 261 259
67 92 97 48 88 93 57 49 49 62 47 37 30 26 17 26 38 40 35 29 24 19 19 20 18 15 15 15 13 12 11 7 5 0 352 341 329 313 297 291 289 280 270 262 257 253 251 253 252
75 124 108 45 75 98 89 58 34 77 47 20 16 13 22 37 39 38 34 28 23 14 19 19 19 17 17 14 13 13 10 9 8 8 4 354 342 332 320 307 306 304 293 279 270 264 251 240 234
79 65 48 32 68 68 68 77 62 58 64 29 35 35 36 37 33 27 24 18 13 16 14 11 15 15 14 14 13 12 10 8 6 6 9 6 356 345 335 317 303 300 298 292 281 275 270 258 244
60 70 66 84 81 87 88 82 83 56 43 39 47 43 37 34 27 22 22 22 17 14 8 4 6 9 5 7 8 11 8 6 3 6 8 8 4 353 344 330 315 296 287 281 282 275 270 264 255
59 87 116 93 93 80 82 69 71 46 29 41 41 38 34 33 27 25 24 22 20 15 10 4 5 6 1 359 358 3 3 2 4 7 6 6 3 357 349 338 328 313 299 278 262 257 264 267 262
94 98 88 76 104 134 89 56 47 42 44 45 33 28 30 30 28 26 21 19 13 9 7 5 3 3 360 355 351 354 356 359 1 2 2 3 1 357 351 342 336 330 320 298 277 263 251 254 253
54 64 70 35 44 81 83 81 38 40 53 46 29 23 27 24 23 21 19 15 9 7 5 3 1 358 355 353 349 348 350 352 354 356 358 358 356 354 348 341 336 332 327 310 290 274 267 257 248
35 55 57 41 22 57 84 97 56 39 54 45 28 22 22 20 18 16 15 10 7 7 5 2 360 358 354 350 350 346 343 345 347 351 353 351 350 349 344 333 331 331 327 319 307 289 262 260 258
9 52 59 58 33 62 90 96 72 42 55 43 27 20 18 16 8 4 8 6 3 4 4 2 360 358 355 353 350 346 344 346 345 345 345 343 343 343 340 332 331 331 327 323 318 303 281 256 253
152 113 97 82 104 82 96 97 74 39 44 36 25 18 11 3 354 2 6 4 1 0 3 2 359 356 357 358 355 350 346 343 340 340 339 338 340 340 337 335 331 330 325 317 312 307 292 272 248
97 108 107 102 98 102 106 94 71 43 50 40 23 12 359 355 357 1 3 3 358 353 353 357 356 353 357 357 348 342 335 334 337 338 338 340 340 337 336 335 331 327 324 320 317 316 302 281 237
46 126 160 144 75 99 115 88 64 35 38 37 24 7 357 359 350 356 1 0 356 353 350 350 351 350 355 356 350 346 343 343 345 341 337 337 335 333 333 331 329 324 322 318 317 312 305 294 271
318 277 241 174 148 176 158 161 207 247 7 8 357 354 348 348 347 355 358 358 354 349 347 348 349 349 355 357 352 349 346 343 339 335 329 327 327 327 328 328 324 320 319 315 314 314 307 296 281
278 306 252 167 147 112 147 141 209 308 357 339 331 334 331 339 348 353 354 355 348 346 353 351 347 350 354 355 351 347 343 340 335 334 331 331 328 326 327 324 320 318 316 312 311 312 307 296 280
320 21 82 68 92 108 245 186 221 258 304 301 309 318 322 336 347 346 345 351 344 350 354 349 345 346 353 354 349 347 344 340 337 337 334 333 330 330 331 329 324 319 315 309 308 303 300 294 280
22 38 18 6 5 266 71 122 204 211 223 272 298 312 323 336 340 337 344 352 352 356 357 351 345 345 352 351 347 345 346 341 337 335 330 328 328 330 331 331 325 319 312 307 301 296 293 290 277
32 65 87 299 280 288 17 185 224 222 237 276 290 302 322 331 331 333 348 354 353 357 356 351 347 346 348 347 344 342 346 341 336 332 326 324 327 326 326 326 323 317 311 305 298 293 286 285 272
75 69 115 169 285 284 286 358 286 246 292 300 300 309 325 330 331 337 357 359 355 354 353 347 345 344 345 345 342 341 343 339 336 331 325 326 327 325 325 326 325 320 314 305 297 289 284 279 266
100 118 67 53 343 313 309 258 220 263 301 310 318 324 330 336 339 354 5 2 354 350 349 345 345 343 341 341 341 341 337 336 334 333 332 329 328 327 326 330 329 326 322 316 306 292 282 276 263
34 54 73 86 147 256 299 290 174 227 308 315 316 327 342 344 345 355 4 360 351 347 351 347 346 345 343 341 339 338 337 338 337 336 334 332 329 329 330 334 335 335 337 335 329 316 296 282 275
109 112 121 135 259 213 247 274 165 177 313 312 319 337 345 342 340 348 360 353 347 347 350 348 346 345 343 340 339 339 338 339 339 337 335 334 331 332 332 337 340 345 355 357 353 347 341 341 3
Height
1515 1514 1513 1514 1518 1530 1534 1531 1528 1525 1521 1521 1520 1521 1525 1530 1535 1542 1538 1535 1535 1534 1533 1532 1531 1530 1530 1530 1530 1529 1529 1529 1529 1530 1530 1530 1531 1531 1531 1531 1531 1532 1532 1532 1532 1532 1533 1532 1533
1515 1514 1515 1515 1528 1544 1540 1533 1530 1527 1524 1522 1523 1525 1528 1533 1537 1539 1539 1538 1537 1536 1535 1534 1533 1532 1531 1531 1530 1529 1529 1529 1529 1529 1530 1530 1530 1530 1530 1530 1530 1530 1530 1530 1530 1531 1531 1531 1532
1515 1515 1517 1522 1538 1547 1543 1535 1532 1528 1525 1523 1526 1530 1535 1542 1543 1543 1542 1541 1540 1539 1538 1537 1535 1534 1532 1531 1530 1529 1528 1528 1528 1528 1528 1528 1528 1528 1528 1528 1528 1529 1529 1529 1529 1529 1529 1530 1531
1517 1518 1520 1530 1544 1543 1540 1536 1532 1527 1525 1527 1529 1536 1544 1551 1550 1547 1544 1543 1542 1540 1540 1538 1536 1534 1533 1531 1530 1529 1528 1528 1527 1527 1528 1528 1527 1526 1526 1526 1526 1527 1527 1527 1527 1527 1527 1528 1529
1518 1519 1531 1542 1544 1542 1538 1536 1533 1531 1532 1534 1534 1542 1548 1552 1551 1547 1544 1542 1541 1540 1539 1538 1537 1535 1533 1531 1530 1529 1527 1527 1526 1526 1527 1526 1525 1525 1525 1524 1525 1525 1525 1525 1525 1525 1525 1526 1527
1520 1523 1544 1552 1547 1543 1539 1538 1536 1537 1539 1539 1541 1545 1555 1556 1550 1548 1545 1542 1541 1539 1538 1536 1535 1534 1533 1532 1530 1529 1527 1526 1525 1525 1525 1524 1524 1524 1523 1523 1523 1524 1523 1523 1523 1523 1523 1524 1524
1525 1534 1548 1550 1550 1546 1543 1542 1545 1545 1546 1551 1550 1551 1558 1556 1554 1552 1548 1545 1542 1541 1539 1537 1535 1533 1532 1532 1531 1530 1528 1527 1526 1524 1523 1522 1522 1522 1521 1521 1521 1521 1521 1521 1521 1520 1520 1521 1522
1529 1537 1549 1550 1549 1549 1548 1549 1553 1554 1560 1561 1557 1562 1567 1564 1559 1555 1549 1546 1545 1543 1541 1539 1537 1534 1533 1531 1530 1529 1528 1527 1525 1524 1522 1521 1520 1520 1519 1519 1519 1519 1518 1518 1518 1518 1518 1518 1518
1532 1544 1553 1549 1548 1551 1552 1553 1560 1567 1567 1567 1570 1573 1574 1568 1561 1552 1548 1547 1546 1544 1542 1541 1538 1536 1534 1531 1529 1527 1526 1524 1523 1522 1521 1520 1519 1518 1517 1517 1517 1516 1515 1515 1515 1515 1515 1515 1515
1534 1549 1547 1546 1547 1554 1556 1557 1564 1571 1568 1572 1574 1575 1573 1566 1558 1553 1551 1550 1548 1547 1545 1543 1540 1538 1535 1533 1530 1528 1525 1523 1521 1519 1518 1517 1516 1516 1515 1514 1514 1514 1513 1512 1512 1512 1512 1512 1512
1537 1544 1544 1546 1548 1551 1557 1565 1569 1570 1579 1583 1582 1578 1573 1566 1561 1559 1558 1557 1555 1552 1548 1545 1542 1539 1536 1533 1530 1528 1525 1523 1520 1517 1515 1514 1513 1513 1512 1511 1511 1510 1510 1509 1509 1508 1508 1508 1508
1540 1543 1545 1548 1549 1553 1560 1569 1577 1579 1589 1589 1584 1580 1574 1568 1566 1565 1563 1561 1558 1555 1552 1549 1545 1542 1538 1535 1531 1528 1525 1522 1519 1517 1514 1512 1510 1509 1508 1507 1507 1507 1507 1506 1506 1505 1505 1505 1504
1543 1549 1553 1554 1556 1562 1566 1574 1580 1590 1592 1590 1585 1579 1575 1573 1571 1570 1568 1564 1560 1557 1554 1551 1548 1544 1541 1537 1533 1529 1526 1522 1519 1516 1513 1510 1508 1506 1505 1504 1503 1502 1502 1501 1501 1501 1501 1500 1500
1547 1551 1557 1558 1559 1567 1568 1580 1585 1596 1594 1590 1585 1582 1580 1577 1576 1572 1568 1565 1562 1560 1556 1553 1549 1545 1541 1537 1533 1530 1526 1522 1519 1515 1512 1509 1506 1503 1501 1500 1499 1498 1497 1496 1496 1495 1495 1495 1495
1549 1554 1560 1563 1564 1571 1569 1589 1596 1599 1595 1591 1589 1587 1584 1582 1579 1576 1573 1570 1566 1563 1559 1554 1549 1545 1541 1536 1532 1528 1525 1521 1517 1513 1510 1507 1503 1500 1497 1495 1494 1493 1492 1490 1490 1490 1490 1489 1489
1551 1559 1567 1568 1568 1571 1576 1602 1602 1601 1595 1593 1591 1589 1587 1585 1582 1580 1576 1572 1568 1564 1559 1555 1550 1544 1539 1535 1530 1526 1522 1518 1514 1510 1507 1503 1500 1496 1493 1491 1489 1487 1485 1485 1484 1484 1484 1483 1483
1563 1567 1569 1571 1574 1575 1582 1601 1606 1603 1597 1596 1594 1591 1588 1585 1583 1580 1577 1574 1569 1564 1559 1553 1548 1542 1537 1532 1527 1522 1518 1513 1510 1506 1502 1498 1495 1491 1488 1485 1483 1480 1478 1478 1477 1476 1476 1476 1476
1569 1569 1571 1577 1583 1583 1590 1604 1608 1606 1601 1600 1598 1595 1591 1588 1586 1582 1578 1573 1568 1563 1557 1552 1546 1540 1534 1528 1523 1518 1513 1508 1505 1501 1498 1494 1489 1486 1482 1479 1477 1474 1471 1470 1469 1468 1468 1468 1470
1564 1568 1573 1579 1584 1591 1598 1607 1610 1609 1604 1602 1600 1597 1594 1592 1589 1584 1578 1573 1567 1560 1554 1548 1542 1537 1531 1525 1519 1513 1508 1503 1499 1496 1492 1488 1484 1480 1476 1472 1469 1468 1465 1463 1463 1461 1460 1460 1463
1564 1570 1575 1585 1587 1594 1604 1609 1610 1608 1607 1605 1603 1599 1596 1591 1586 1581 1576 1571 1566 1560 1553 1547 1541 1535 1529 1523 1518 1512 1507 1502 1497 1492 1488 1483 1478 1474 1470 1466 1463 1461 1458 1456 1455 1455 1453 1453 1456
1569 1569 1571 1579 1592 1595 1602 1612 1611 1609 1607 1605 1602 1599 1595 1591 1586 1581 1576 1571 1566 1559 1553 1547 1540 1534 1527 1520 1513 1507 1500 1495 1490 1486 1482 1477 1473 1469 1465 1461 1458 1455 1451 1449 1448 1447 1445 1445 1447
1573 1567 1569 1572 1586 1597 1597 1611 1612 1608 1605 1602 1600 1597 1594 1591 1586 1582 1576 1570 1564 1558 1551 1545 1538 1531 1525 1517 1510 1504 1498 1492 1487 1482 1477 1472 1468 1464 1460 1455 1451 1447 1444 1441 1440 1439 1437 1437 1438
1571 1569 1569 1571 1579 1589 1592 1603 1610 1606 1605 1603 1599 1597 1594 1590 1586 1582 1576 1570 1563 1556 1549 1542 1535 1528 1522 1515 1509 1502 1497 1492 1485 1479 1473 1467 1462 1458 1453 1448 1443 1439 1436 1433 1431 1430 1429 1429 1430
1570 1570 1570 1576 1579 1582 1587 1592 1606 1607 1605 1603 1599 1597 1594 1590 1585 1580 1574 1568 1560 1554 1547 1539 1532 1526 1520 1513 1507 1501 1495 1489 1482 1475 1469 1463 1458 1453 1447 1441 1436 1432 1428 1425 1423 1421 1421 1421 1421
1575 1579 1583 1581 1583 1583 1595 1597 1606 1604 1602 1601 1598 1595 1592 1589 1583 1577 1570 1563 1556 1550 1544 1537 1531 1525 1518 1512 1506 1499 1493 1487 1480 1474 1468 1462 1456 1449 1442 1436 1430 1426 1422 1418 1415 1413 1412 1412 1413
1583 1586 1596 1596 1594 1590 1593 1598 1606 1601 1600 1599 1597 1594 1590 1586 1581 1576 1569 1562 1555 1549 1542 1536 1529 1523 1517 1510 1503 1497 1491 1485 1479 1473 1467 1462 1456 1449 1441 1434 1427 1421 1416 1412 1408 1404 1403 1403 1404
1584 1593 1593 1600 1600 1601 1596 1604 1603 1600 1599 1597 1594 1591 1588 1584 1579 1574 1567 1561 1555 1548 1542 1535 1528 1522 1515 1508 1501 1495 1489 1483 1476 1470 1465 1459 1453 1446 1439 1431 1423 1417 1411 1406 1402 1397 1395 1395 1395
1589 1593 1600 1603 1604 1600 1594 1600 1603 1601 1600 1595 1591 1588 1585 1582 1577 1571 1565 1559 1554 1547 1541 1535 1528 1521 1514 1507 1501 1494 1487 1481 1474 1467 1460 1454 1447 1442 1435 1428 1421 1414 1408 1402 1396 1392 1389 1389 1389
1593 1596 1603 1611 1611 1612 1610 1599 1601 1600 1598 1595 1590 1586 1584 1580 1575 1570 1563 1558 1552 1545 1539 1533 1526 1519 1512 1505 1499 1492 1485 1478 1471 1464 1456 1449 1443 1438 1432 1426 1419 1412 1405 1398 1392 1387 1385 1384 1384
1594 1598 1603 1609 1610 1614 1617 1605 1598 1598 1596 1593 1589 1586 1583 1579 1575 1569 1562 1556 1549 1542 1536 1530 1524 1518 1511 1504 1497 1490 1484 1476 1469 1462 1454 1448 1441 1436 1430 1425 1418 1411 1404 1396 1389 1385 1382 1382 1381